Flag for Micronesia Weather past 2 weeks in Weno, Truk, Micronesia

Now
82 °F

Passing clouds.


Feels Like: 88 °F
Forecast: 80 / 86 °F
Wind: 12 mph from North

Location: Truk Intl / Moen Island

Current Time: Mar 6, 2015 at 2:30:59 AM

Latest Report: Mar 6, 2015 at 1:56 AM


Visibility: 15 mi

Pressure: 29.77 "Hg

Humidity: 80%

Dew point: 75 °F

Location of WenoLocation

Historic Weather in Weno — Graph

°F

Weno temperature yesterday

Maximum temperature yesterday: 86 °F (at 12:50 PM)
Minimum temperature yesterday: 82 °F (at 3:50 AM)
Average temperature yesterday: 83 °F

Past Weeks' High & Low Weather Summary

 TemperatureHumidityPressure
High87 °F (Mar 4, 12:55 PM)99% (Feb 28, 9:50 AM)29.89 "Hg (Feb 28, 9:50 AM)
Low73 °F (Feb 24, 6:56 PM)68% (Mar 5, 10:52 AM)29.69 "Hg (Mar 1, 2:50 PM)
Average82 °F83%29.79 "Hg
* Reported Feb 19 12:50 AM — Mar 6 12:58 AM, Weno, Weather by CustomWeather, © 2015

Note: Actual official high and low records may vary slightly from our data, if they occured in-between our weather recording intervals... More about our weather records

Advertising

Weno weather history for previous 24 hours

 ConditionsComfort  
Time TempWeatherWind HumidityBarometerVisibility
12:58 AM
Fri, Mar 6
82 °FPassing clouds.9 mph77%29.78 "Hg15 mi
11:55 PM
Thu, Mar 5
82 °FPassing clouds.8 mph78%29.80 "Hg15 mi
10:54 PM82 °FPassing clouds.9 mph78%29.81 "Hg15 mi
9:53 PM82 °FPassing clouds.9 mph76%29.81 "Hg15 mi
8:51 PM82 °FPartly cloudy.15 mph75%29.80 "Hg15 mi
7:50 PM82 °FPassing clouds.14 mph76%29.78 "Hg15 mi
6:51 PM82 °FPassing clouds.14 mph75%29.76 "Hg15 mi
5:52 PM83 °FPartly sunny.12 mph74%29.75 "Hg15 mi
4:50 PM85 °FBroken clouds.16 mph70%29.73 "Hg15 mi
3:50 PM86 °FBroken clouds.14 mph70%29.72 "Hg15 mi
2:50 PM86 °FPartly sunny.15 mph68%29.72 "Hg15 mi
1:51 PM86 °FBroken clouds.14 mph71%29.74 "Hg15 mi
12:50 PM86 °FBroken clouds.14 mph68%29.76 "Hg15 mi
11:55 AM86 °FMore clouds than sun.10 mph70%29.79 "Hg15 mi
10:52 AM85 °FMore clouds than sun.13 mph68%29.81 "Hg15 mi
9:51 AM84 °FMore clouds than sun.10 mph73%29.83 "Hg15 mi
8:51 AM84 °FMore clouds than sun.9 mph74%29.82 "Hg15 mi
7:50 AM82 °FMore clouds than sun.14 mph78%29.81 "Hg15 mi
6:53 AM82 °FMore clouds than sun.12 mph78%29.78 "Hg15 mi
5:50 AM82 °FMostly cloudy.10 mph80%29.74 "Hg15 mi
4:52 AM82 °FMostly cloudy.8 mph76%29.74 "Hg15 mi
3:50 AM82 °FMostly cloudy.8 mph80%29.73 "Hg15 mi
2:50 AM82 °FOvercast.8 mph82%29.73 "Hg15 mi
Weather by CustomWeather, © 2015

See weather overviewHow to use our weather pages